Location: Balsareny
(41.8670°N, 1.8830°E)
Time: 10:35:52
(UTC+02:00)

Tiangong - Visible Passes

Search period start: 26 June 2022 00:00
Search period end: 06 July 2022 00:00
Orbit: 384 x 388 km, 41.5° (Epoch: 25 June)

Date Brightness Start Highest point End Pass type
(mag) Time Alt. Az. Time Alt. Az. Time Alt. Az.
26 Jun 1.0 22:54:29 10° WSW 22:57:38 62° SSE 23:00:12 14° E visible
27 Jun 3.2 00:31:16 10° W 00:32:27 21° W 00:32:27 21° W visible
27 Jun 0.9 23:32:03 10° W 23:35:14 86° S 23:36:05 45° E visible
28 Jun 1.0 22:32:50 10° W 22:36:00 78° S 22:39:10 10° E visible
29 Jun 2.2 00:09:40 10° W 00:11:46 37° W 00:11:46 37° W visible
29 Jun 0.9 23:10:25 10° W 23:13:35 83° S 23:15:06 28° E visible
30 Jun 1.0 22:11:07 10° W 22:14:18 86° S 22:17:29 10° E visible
30 Jun 1.6 23:48:00 10° W 23:50:36 45° SW 23:50:36 45° SW visible
01 Jul 1.0 22:48:40 10° W 22:51:50 70° S 22:53:49 21° ESE visible
02 Jul 3.9 00:25:49 10° W 00:26:02 11° W 00:26:02 11° W visible
02 Jul 1.9 23:26:17 10° W 23:29:13 35° SSW 23:29:13 35° SSW visible
03 Jul 1.4 22:26:51 10° W 22:29:57 51° SSW 22:32:24 15° ESE visible
04 Jul 3.9 00:04:35 10° WSW 00:04:37 10° WSW 00:04:37 10° WSW visible
04 Jul 2.6 23:04:37 10° W 23:07:10 22° SSW 23:07:47 21° S visible
05 Jul 2.1 22:05:01 10° W 22:07:55 34° SSW 22:10:50 10° SE visible
